This is the latest recevied weather packets stored in our database for station/object N4XHQ-13. If no packets are shown the sender has not sent any weather packets the latest 10 day(s).
| Time | Temp. | Humidity | Pressure | Rain* | Wind** | Luminosity | Snow |
|---|---|---|---|---|---|---|---|
| 1788558196 | 38.33° C | 36% | 1013.3 hPa | 0 mm | - | 369 W/m² | - |
| 1788557894 | 38.33° C | 36% | 1013.2 hPa | 0 mm | - | 393 W/m² | - |
| 1788557589 | 38.33° C | 36% | 1013.3 hPa | 0 mm | - | 414 W/m² | - |
| 1788557285 | 38.33° C | 36% | 1013.3 hPa | 0 mm | - | 424 W/m² | - |
| 1788556986 | 38.89° C | 35% | 1013.2 hPa | 0 mm | - | 445 W/m² | - |
| 1788556681 | 38.89° C | 36% | 1013.3 hPa | 0 mm | - | 472 W/m² | - |
| 1788556375 | 38.33° C | 37% | 1013.1 hPa | 0 mm | - | 486 W/m² | - |
| 1788556070 | 38.33° C | 37% | 1013.2 hPa | 0 mm | - | 490 W/m² | - |
| 1788555765 | 38.33° C | 37% | 1013.2 hPa | 0 mm | - | 517 W/m² | - |
| 1788555461 | 38.33° C | 36% | 1013.2 hPa | 0 mm | - | 544 W/m² | - |
| 1788555157 | 38.33° C | 35% | 1013.4 hPa | 0 mm | - | 562 W/m² | - |
| 1788554853 | 38.33° C | 36% | 1013.4 hPa | 0 mm | - | 604 W/m² | - |
| 1788554549 | 37.78° C | 37% | 1013.5 hPa | 0 mm | - | 609 W/m² | - |
| 1788554245 | 37.78° C | 38% | 1013.2 hPa | 0 mm | - | 176 W/m² | - |
| 1788553941 | 38.33° C | 37% | 1013.3 hPa | 0 mm | - | 661 W/m² | - |
| 1788553637 | 37.78° C | 37% | 1013.5 hPa | 0 mm | - | 472 W/m² | - |
| 1788553333 | 37.78° C | 37% | 1013.7 hPa | 0 mm | - | 665 W/m² | - |
| 1788553028 | 38.33° C | 37% | 1013.6 hPa | 0 mm | - | 692 W/m² | - |
| 1788552728 | 38.33° C | 36% | 1013.9 hPa | 0 mm | - | 715 W/m² | - |
| 1788552423 | 38.33° C | 35% | 1013.7 hPa | 0 mm | - | 722 W/m² | - |
| 1788552117 | 38.33° C | 36% | 1014.1 hPa | 0 mm | - | 715 W/m² | - |
| 1788551816 | 38.33° C | 37% | 1014.2 hPa | 0 mm | - | 735 W/m² | - |
| 1788551516 | 37.78° C | 38% | 1014.2 hPa | 0 mm | - | 742 W/m² | - |
| 1788551210 | 37.78° C | 39% | 1014.3 hPa | 0 mm | - | 747 W/m² | - |
| 1788550910 | 37.78° C | 39% | 1014.1 hPa | 0 mm | - | 781 W/m² | - |
* Rain latest hour (hover to see other rain measurements)
** Current wind speed in m/s (hover to see current wind gust speed)